Flag for Mexico Weather past 2 weeks in Cozumel, Quintana Roo, Mexico

Now
72 °F

Passing clouds.


Feels Like: 65 °F
Forecast: 81 / 87 °F
Wind: No wind

Location: Cozumel Civ / Mil

Current Time: Sep 19, 2014 at 5:23:46 AM

Latest Report: Sep 19, 2014 at 4:48 AM


Visibility: 7 mi

Pressure: 29.89 "Hg

Humidity: 100%

Dew point: 72 °F

Location of CozumelLocation

Historic Weather in Cozumel — Graph

°F

Cozumel temperature yesterday

Maximum temperature yesterday: 86 °F (at 1:43 PM)
Minimum temperature yesterday: 68 °F (at 5:53 AM)
Average temperature yesterday: 77 °F

Past Weeks' High & Low Weather Summary

 TemperatureHumidityPressure
High86 °F (Sep 4, 12:40 PM)100% (Sep 4, 4:11 AM)30.09 "Hg (Sep 4, 4:11 AM)
Low68 °F (Sep 5, 9:47 PM)66% (Sep 8, 1:43 PM)29.85 "Hg (Sep 10, 6:54 PM)
Average77 °F93%29.95 "Hg
* Reported Sep 4 4:11 AM — Sep 19 3:10 AM, Cozumel, Weather by CustomWeather, © 2014

Note: Actual official high and low records may vary slightly from our data, if they occured in-between our weather recording intervals... More about our weather records

Advertising

Cozumel weather history for previous 24 hours

 ConditionsComfort  
Time TempWeatherWind HumidityBarometerVisibility
3:10 AM
Sep 19
72 °FPassing clouds.No wind100%29.89 "Hg7 mi
11:40 PM
Sep 18
73 °FPassing clouds.No wind100%29.94 "Hg7 mi
10:48 PM73 °FPartly cloudy.3 mph100%29.93 "Hg7 mi
9:45 PM73 °FPartly cloudy.3 mph100%29.96 "Hg7 mi
8:48 PM73 °FPartly cloudy.No wind100%29.92 "Hg7 mi
7:42 PM77 °FBroken clouds.No wind94%29.90 "Hg7 mi
6:51 PM79 °FBroken clouds.6 mph89%29.88 "Hg8 mi
5:47 PM82 °FScattered clouds.10 mph79%29.87 "Hg8 mi
4:41 PM81 °FScattered clouds.9 mph84%29.87 "Hg8 mi
3:41 PM84 °FScattered clouds.9 mph74%29.90 "Hg8 mi
2:42 PM84 °FScattered clouds.8 mph74%29.89 "Hg8 mi
1:43 PM86 °FScattered clouds.7 mph66%29.92 "Hg8 mi
12:47 PM84 °FScattered clouds.9 mph70%29.93 "Hg8 mi
11:41 AM84 °FScattered clouds.6 mph70%29.95 "Hg8 mi
10:40 AM84 °FScattered clouds.3 mph74%29.96 "Hg8 mi
9:40 AM82 °FScattered clouds.7 mph79%29.97 "Hg8 mi
8:40 AM79 °FScattered clouds.5 mph89%29.94 "Hg8 mi
7:45 AM73 °FSunny.No wind100%29.93 "Hg8 mi
6:46 AM68 °FClear.No wind100%29.89 "Hg7 mi
5:53 AM68 °FClear.No wind100%29.91 "Hg7 mi
Weather by CustomWeather, © 2014

See weather overviewHow to use our weather pages